Location: Black Swamp Observatory
(41.3920°N, 84.1250°W)
Time: 22:47:03
(UTC-05:00)

Envisat - Visible Passes

Search period start: 05 December 2021 00:00
Search period end: 15 December 2021 00:00
Orbit: 764 x 766 km, 98.2° (Epoch: 05 December)

Date Brightness Start Highest point End Pass type
(mag) Time Alt. Az. Time Alt. Az. Time Alt. Az.
05 Dec 4.5 04:59:03 10° NNE 05:03:41 35° E 05:08:17 10° SSE visible
05 Dec 3.8 06:38:16 10° N 06:42:33 28° WNW 06:46:49 10° SW visible
05 Dec 5.8 17:53:46 10° SW 17:57:31 21° W 18:01:17 10° NW visible
06 Dec 5.7 04:23:28 10° NE 04:26:31 16° E 04:29:32 10° SE visible
06 Dec 2.9 06:00:54 10° N 06:05:55 60° WNW 06:10:54 10° SSW visible
07 Dec 3.4 05:24:02 10° NNE 05:29:05 62° E 05:34:05 10° S visible
07 Dec 4.4 07:04:23 10° NNW 07:07:35 17° WNW 07:10:46 10° WSW visible
07 Dec 6.3 18:21:29 10° WSW 18:23:06 11° W 18:24:43 10° WNW visible
08 Dec 4.9 04:47:43 10° NE 04:52:03 27° E 04:56:20 10° SSE visible
08 Dec 3.5 06:26:30 10° N 06:31:05 35° WNW 06:35:39 10° SW visible
08 Dec 5.5 17:41:39 10° SSW 17:45:51 26° W 17:50:05 10° NW visible
09 Dec 6.0 04:12:51 10° ENE 04:14:49 12° E 04:16:46 10° ESE visible
09 Dec 2.8 05:49:18 10° N 05:54:23 77° WNW 05:59:27 10° SSW visible
10 Dec 3.9 05:12:34 10° NNE 05:17:29 48° E 05:22:22 10° S visible
10 Dec 4.1 06:52:24 10° NNW 06:56:09 21° WNW 06:59:53 10° WSW visible
10 Dec 6.0 18:08:33 10° SW 18:11:24 15° W 18:14:16 10° NW visible
11 Dec 5.3 04:36:31 10° NE 04:40:24 22° E 04:44:16 10° SE visible
11 Dec 3.2 06:14:47 10° N 06:19:36 44° WNW 06:24:23 10° SW visible
11 Dec 5.0 17:29:40 10° SSW 17:34:13 33° W 17:38:48 10° NNW visible
12 Dec 2.9 05:37:43 10° NNE 05:42:50 84° ESE 05:47:55 10° SSW visible
12 Dec 4.6 07:18:59 10° NW 07:21:07 13° WNW 07:23:16 10° W visible
13 Dec 4.3 05:01:10 10° NNE 05:05:53 37° E 05:10:34 10° SSE visible
13 Dec 3.9 06:40:32 10° N 06:44:42 26° WNW 06:48:52 10° WSW visible
13 Dec 5.8 17:56:09 10° SW 17:59:43 19° W 18:03:19 10° NW visible
14 Dec 5.6 04:25:28 10° NE 04:28:44 17° E 04:31:59 10° SE visible
14 Dec 3.0 06:03:06 10° N 06:08:05 56° WNW 06:13:01 10° SSW visible
